Location: Unspecified
(0.0000°N, 0.0000°E)
Time: 12:51:24
(UTC+02:00)

ASC 2 Rocket - Visible Passes

Search period start: 24 July 2017 00:00
Search period end: 03 August 2017 00:00
Orbit: 555 x 2345 km, 24.0° (Epoch: 23 July)

Date Brightness Start Highest point End Pass type
(mag) Time Alt. Az. Time Alt. Az. Time Alt. Az.
24 Jul 7.0 03:52:00 16° N 03:52:00 16° N 03:57:03 10° NE visible
24 Jul 7.1 05:49:05 10° NW 05:57:19 22° NNE 06:07:06 10° ENE visible
24 Jul 4.8 20:31:46 10° SSW 20:33:58 14° SSE 20:36:08 10° SE visible
25 Jul 6.9 04:44:46 14° NNW 04:48:59 18° N 04:56:27 10° NE visible
25 Jul 7.1 06:45:30 10° NW 06:55:42 30° NNE 07:07:33 10° ENE visible
25 Jul 3.4 21:26:27 10° SW 21:30:06 38° SSE 21:30:06 38° SSE visible
26 Jul 7.1 03:42:47 14° NNE 03:42:47 14° NNE 03:45:57 10° NE visible
26 Jul 7.0 05:39:15 10° NNW 05:47:19 23° NNE 05:57:09 10° ENE visible
26 Jul 6.9 07:41:38 10° NW 07:53:40 45° NNE 08:07:07 10° E visible
26 Jul 5.3 22:22:21 10° WSW 22:23:31 18° WSW 22:23:31 18° WSW visible
27 Jul 6.9 04:35:44 14° N 04:39:14 17° NNE 04:46:12 10° NE visible
27 Jul 6.9 06:35:11 10° NW 06:45:18 34° NNE 06:57:35 10° E visible
27 Jul 2.8 21:16:25 10° WSW 21:20:36 66° SSE 21:22:04 36° E visible
28 Jul 7.2 03:33:56 11° NNE 03:33:56 11° NNE 03:35:01 10° NNE visible
28 Jul 6.9 05:29:17 10° NNW 05:37:12 25° NNE 05:47:12 10° ENE visible
28 Jul 6.6 07:31:08 10° NW 07:42:55 53° NNE 07:56:51 10° E visible
28 Jul 4.7 22:12:56 10° W 22:15:32 29° WNW 22:15:32 29° WNW visible
29 Jul 6.8 04:27:05 16° N 04:29:26 17° NNE 04:36:11 10° NE visible
29 Jul 6.6 06:24:54 10° NW 06:34:47 39° NNE 06:47:25 10° E visible
29 Jul 3.0 21:06:30 10° WSW 21:10:56 72° NNW 21:14:05 16° ENE visible
30 Jul 6.7 05:20:22 14° NNW 05:27:00 28° NNE 05:37:11 10° ENE visible
30 Jul 6.2 07:20:46 10° NW 07:32:07 62° NNE 07:46:21 10° ESE visible
30 Jul 4.9 22:03:46 10° WNW 22:07:02 22° NNW 22:07:31 22° NNW visible
31 Jul 6.7 04:18:50 18° NNE 04:19:33 18° NNE 04:26:20 10° ENE visible
31 Jul 6.3 06:14:41 10° NW 06:24:13 46° NNE 06:37:02 10° E visible
31 Jul 4.1 20:56:42 10° W 21:01:13 43° NNW 21:05:05 10° NE visible
01 Aug 6.3 05:12:17 22° NNW 05:16:44 32° NNE 05:27:03 10° E visible
01 Aug 5.8 07:10:32 10° WNW 07:21:19 73° NNE 07:35:37 10° ESE visible
01 Aug 5.5 21:54:55 10° WNW 21:57:21 15° NNW 21:59:23 11° N visible
02 Aug 6.7 04:10:54 20° NE 04:10:54 20° NE 04:16:31 10° ENE visible
02 Aug 5.8 06:05:48 16° NW 06:13:37 54° NNE 06:26:27 10° ESE visible
02 Aug 5.0 20:47:02 10° W 20:51:27 28° NNW 20:55:05 10° NNE visible
